Hourly Data Report for May 18, 2017

All times are specified in Local Standard Time (LST). Add 1 hour to adjust for Daylight Saving Time where and when it is observed.

KAMLOOPS A
BRITISH COLUMBIA

50°42'09.000" N
120°26'55.000" W
345.30 m
1163781
71887
YKA

Download Data

Hourly Data (May 2017)
Hourly Data Report for May 18, 2017
Temp Definition
°C
Dew Point Temp Definition
°C
Rel Hum Definition
%
Wind Dir Definition
10's deg

Wind Spd Definition
km/h
Visibility Definition
km
Stn Press Definition
kPa
Hmdx Definition


Wind Chill Definition


Weather Definition


TIME
00:00 Legend Double Dagger 10.1 6.5 78 23 7 64.4 97.71     LegendNANA
01:00 Legend Double Dagger 9.4 5.2 75 36 1 64.4 97.74     Mainly Clear
02:00 Legend Double Dagger 8.1 5.4 83 30 8 64.4 97.80     LegendNANA
03:00 Legend Double Dagger 6.7 4.9 88 36 1 64.4 97.83     LegendNANA
04:00 Legend Double Dagger 7.4 5.6 88 36 2 64.4 97.88     Mostly Cloudy
05:00 Legend Double Dagger 7.5 5.2 85 36 2 64.4 97.93     LegendNANA
06:00 Legend Double Dagger 9.4 6.3 81 19 4 64.4 97.95     LegendNANA
07:00 Legend Double Dagger 11.2 5.3 67 18 4 64.4 97.96     Mostly Cloudy
08:00 Legend Double Dagger 13.7 5.2 56 17 6 64.4 97.94     LegendNANA
09:00 Legend Double Dagger 14.9 5.5 53 32 6 64.4 97.90     LegendNANA
10:00 Legend Double Dagger 16.5 5.9 49 12 4 64.4 97.84     Mostly Cloudy
11:00 Legend Double Dagger 18.1 4.8 41 12 7 64.4 97.77     LegendNANA
12:00 Legend Double Dagger 18.5 4.8 40 17 5 64.4 97.69     LegendNANA
13:00 Legend Double Dagger 19.9 6.8 42 29 10 64.4 97.62     Mostly Cloudy
14:00 Legend Double Dagger 18.6 6.6 45 29 14 64.4 97.56     LegendNANA
15:00 Legend Double Dagger 20.0 5.8 39 17 4 64.4 97.52     LegendNANA
16:00 Legend Double Dagger 21.1 5.2 35 5 25 64.4 97.47     Mostly Cloudy
17:00 Legend Double Dagger 19.4 5.2 39 4 19 64.4 97.48     LegendNANA
18:00 Legend Double Dagger 18.4 6.1 44 5 25 64.4 97.49     LegendNANA
19:00 Legend Double Dagger 17.7 5.7 45 4 25 64.4 97.50     Mostly Cloudy
20:00 Legend Double Dagger 16.3 6.0 50 9 10 64.4 97.56     LegendNANA
21:00 Legend Double Dagger 13.3 6.5 63 11 9 64.4 97.63     LegendNANA
22:00 Legend Double Dagger 12.6 6.5 66 11 11 64.4 97.67     Mainly Clear
23:00 Legend Double Dagger 12.0 6.1 67 10 10 64.4 97.73     LegendNANA

Notes on Data Quality.

Legend

  • E = Estimated
  • M = Missing
  • NA = Not Available
  • ‡ = Partner data that is not subject to review by the National Climate Archives
Date modified: